• In Moldova, Republic
  • List of Countries
  • For 7 days
  • Water Temperature
  • Satellite Maps
  • Weather Map
  • Weather Widgets
  • user-avatar
    Login

    Hourly Weather Berat

    Today, 23 April, Sunday

    Time Temperature Precipitation Wind Pressure Humidity
    00:00 +5°C° 0 mm 1 mps 746 mmHg 81%
    01:00 +5°C° 0 mm 1 mps 745 mmHg 81%
    02:00 +5°C° 0 mm 1 mps 745 mmHg 80%
    03:00 +5°C° 0 mm 1 mps 745 mmHg 78%
    04:00 +5°C° 0 mm 1 mps 745 mmHg 77%
    05:00 +7°C° 0 mm 1 mps 745 mmHg 68%
    06:00 +9°C° 0 mm 1 mps 745 mmHg 59%
    07:00 +12°C° 0 mm 1 mps 745 mmHg 48%
    08:00 +13°C° 0 mm 1 mps 745 mmHg 46%
    09:00 +15°C° 0 mm 2 mps 745 mmHg 44%
    10:00 +16°C° 0 mm 2 mps 746 mmHg 42%
    11:00 +17°C° 0 mm 2 mps 746 mmHg 42%
    12:00 +18°C° 0 mm 3 mps 746 mmHg 42%
    13:00 +18°C° 0 mm 4 mps 746 mmHg 42%
    14:00 +18°C° 0 mm 3 mps 746 mmHg 44%
    15:00 +17°C° 0 mm 3 mps 746 mmHg 47%
    16:00 +17°C° 0 mm 3 mps 746 mmHg 49%
    17:00 +13°C° 0 mm 3 mps 746 mmHg 59%
    18:00 +12°C° 0 mm 2 mps 747 mmHg 69%
    19:00 +10°C° 0 mm 1 mps 747 mmHg 79%
    20:00 +9°C° 0 mm 1 mps 747 mmHg 79%
    21:00 +9°C° 0 mm 1 mps 748 mmHg 80%
    22:00 +8°C° 0 mm 1 mps 748 mmHg 80%
    23:00 +8°C° 0 mm 1 mps 748 mmHg 81%

    Tomorrow, 24 April, Monday

    Time Temperature Precipitation Wind Pressure Humidity
    00:00 +8°C° 0 mm 1 mps 749 mmHg 81%
    01:00 +7°C° 0 mm 1 mps 749 mmHg 81%
    02:00 +7°C° 0 mm 1 mps 748 mmHg 81%
    03:00 +7°C° 0 mm 1 mps 748 mmHg 81%
    04:00 +7°C° 0 mm 1 mps 748 mmHg 80%
    05:00 +9°C° 0 mm 1 mps 748 mmHg 73%
    06:00 +12°C° 0 mm 1 mps 749 mmHg 66%
    07:00 +14°C° 0 mm 1 mps 749 mmHg 59%
    08:00 +16°C° 0 mm 1 mps 749 mmHg 54%
    09:00 +19°C° 0 mm 1 mps 749 mmHg 48%
    10:00 +21°C° 0 mm 1 mps 749 mmHg 43%
    11:00 +21°C° 0 mm 1 mps 749 mmHg 43%
    12:00 +20°C° 0 mm 2 mps 749 mmHg 42%
    13:00 +21°C° 0 mm 3 mps 749 mmHg 42%
    14:00 +20°C° 0 mm 3 mps 749 mmHg 45%
    15:00 +20°C° 0 mm 3 mps 748 mmHg 49%
    16:00 +19°C° 0 mm 3 mps 748 mmHg 52%
    17:00 +17°C° 0 mm 2 mps 748 mmHg 64%
    18:00 +14°C° 0 mm 1 mps 748 mmHg 75%
    19:00 +12°C° 0 mm 1 mps 748 mmHg 87%
    20:00 +12°C° 0 mm 1 mps 748 mmHg 88%
    21:00 +11°C° 0 mm 1 mps 748 mmHg 88%
    22:00 +11°C° 0 mm 1 mps 749 mmHg 89%
    23:00 +10°C° 0 mm 2 mps 748 mmHg 89%

    Day after tomorrow, 25 April, Tuesday

    Time Temperature Precipitation Wind Pressure Humidity
    00:00 +9°C° 0 mm 2 mps 748 mmHg 89%
    01:00 +9°C° 0 mm 2 mps 748 mmHg 89%
    02:00 +9°C° 0 mm 2 mps 748 mmHg 89%
    03:00 +9°C° 0 mm 2 mps 748 mmHg 89%
    04:00 +9°C° 0 mm 2 mps 748 mmHg 89%
    05:00 +10°C° 0 mm 2 mps 748 mmHg 81%
    06:00 +13°C° 0 mm 2 mps 748 mmHg 74%
    07:00 +15°C° 0 mm 2 mps 748 mmHg 66%
    08:00 +17°C° 0 mm 2 mps 748 mmHg 57%
    09:00 +18°C° 0 mm 3 mps 748 mmHg 48%
    10:00 +20°C° 0 mm 3 mps 748 mmHg 39%
    11:00 +20°C° 0 mm 3 mps 748 mmHg 38%
    12:00 +21°C° 0 mm 4 mps 748 mmHg 36%
    13:00 +22°C° 0 mm 4 mps 747 mmHg 35%
    14:00 +21°C° 0 mm 4 mps 747 mmHg 38%
    15:00 +21°C° 0 mm 4 mps 747 mmHg 40%
    16:00 +20°C° 0 mm 4 mps 746 mmHg 43%
    17:00 +18°C° 0 mm 4 mps 746 mmHg 54%
    18:00 +14°C° 0 mm 3 mps 746 mmHg 65%
    19:00 +13°C° 0 mm 2 mps 746 mmHg 76%
    20:00 +12°C° 0 mm 2 mps 746 mmHg 78%
    21:00 +12°C° 0 mm 2 mps 747 mmHg 80%
    22:00 +10°C° 0 mm 2 mps 747 mmHg 83%
    23:00 +10°C° 0 mm 2 mps 747 mmHg 81%

    26 April, Wednesday

    Time Temperature Precipitation Wind Pressure Humidity
    00:00 +9°C° 0 mm 2 mps 746 mmHg 79%
    01:00 +9°C° 0 mm 2 mps 746 mmHg 77%
    02:00 +9°C° 0 mm 2 mps 746 mmHg 74%
    03:00 +9°C° 0 mm 2 mps 746 mmHg 70%
    04:00 +8°C° 0 mm 2 mps 745 mmHg 67%
    05:00 +10°C° 0 mm 2 mps 745 mmHg 61%
    06:00 +13°C° 0 mm 2 mps 745 mmHg 55%
    07:00 +15°C° 0 mm 2 mps 745 mmHg 48%
    08:00 +17°C° 0 mm 2 mps 746 mmHg 42%
    09:00 +19°C° 0 mm 3 mps 746 mmHg 36%
    10:00 +21°C° 0 mm 3 mps 746 mmHg 29%
    11:00 +22°C° 0 mm 3 mps 745 mmHg 29%
    12:00 +23°C° 0 mm 4 mps 745 mmHg 29%
    13:00 +23°C° 0 mm 4 mps 745 mmHg 29%
    14:00 +23°C° 0 mm 4 mps 745 mmHg 31%
    15:00 +23°C° 0 mm 4 mps 744 mmHg 34%
    16:00 +22°C° 0 mm 4 mps 744 mmHg 36%
    17:00 +20°C° 0 mm 3 mps 744 mmHg 45%
    18:00 +17°C° 0 mm 3 mps 744 mmHg 55%
    19:00 +14°C° 0 mm 2 mps 744 mmHg 64%
    20:00 +14°C° 0 mm 2 mps 745 mmHg 66%
    21:00 +14°C° 0 mm 2 mps 745 mmHg 68%
    22:00 +13°C° 0 mm 2 mps 745 mmHg 70%
    23:00 +13°C° 0 mm 2 mps 745 mmHg 69%

    27 April, Thursday

    Time Temperature Precipitation Wind Pressure Humidity
    00:00 +13°C° 0 mm 2 mps 745 mmHg 69%
    01:00 +13°C° 0 mm 2 mps 745 mmHg 68%
    02:00 +13°C° 0 mm 2 mps 744 mmHg 67%
    03:00 +12°C° 0 mm 3 mps 744 mmHg 66%
    04:00 +11°C° 0 mm 3 mps 744 mmHg 65%
    05:00 +13°C° 0 mm 3 mps 744 mmHg 60%
    06:00 +16°C° 0 mm 3 mps 744 mmHg 55%
    07:00 +18°C° 0 mm 2 mps 744 mmHg 50%
    08:00 +20°C° 0 mm 3 mps 744 mmHg 44%
    09:00 +22°C° 0 mm 3 mps 744 mmHg 39%
    10:00 +26°C° 0 mm 3 mps 744 mmHg 34%
    11:00 +26°C° 0 mm 3 mps 744 mmHg 34%
    12:00 +26°C° 0 mm 4 mps 743 mmHg 34%
    13:00 +27°C° 0 mm 4 mps 743 mmHg 33%
    14:00 +26°C° 0 mm 4 mps 743 mmHg 35%
    15:00 +26°C° 0 mm 4 mps 743 mmHg 37%
    16:00 +25°C° 0 mm 4 mps 742 mmHg 39%
    17:00 +21°C° 0 mm 4 mps 743 mmHg 47%
    18:00 +19°C° 0 mm 3 mps 743 mmHg 54%
    19:00 +16°C° 0 mm 3 mps 743 mmHg 62%
    20:00 +16°C° 0 mm 3 mps 743 mmHg 62%
    21:00 +16°C° 0 mm 3 mps 743 mmHg 62%
    22:00 +16°C° 0 mm 2 mps 743 mmHg 61%
    23:00 +16°C° 0 mm 2 mps 743 mmHg 61%

    28 April, Friday

    Time Temperature Precipitation Wind Pressure Humidity
    00:00 +14°C° 0 mm 3 mps 743 mmHg 60%
    01:00 +14°C° 0 mm 3 mps 742 mmHg 59%
    02:00 +14°C° 0 mm 3 mps 742 mmHg 60%
    03:00 +13°C° 0 mm 3 mps 742 mmHg 60%
    04:00 +13°C° 0 mm 3 mps 742 mmHg 60%
    05:00 +14°C° 0.1 mm 3 mps 742 mmHg 58%
    06:00 +16°C° 0.1 mm 3 mps 742 mmHg 56%
    07:00 +18°C° 0.1 mm 3 mps 743 mmHg 54%
    08:00 +18°C° 0.1 mm 3 mps 742 mmHg 51%
    09:00 +19°C° 0.1 mm 3 mps 742 mmHg 49%
    10:00 +20°C° 0.1 mm 3 mps 742 mmHg 46%
    11:00 +21°C° 0 mm 4 mps 742 mmHg 44%
    12:00 +22°C° 0 mm 5 mps 741 mmHg 42%
    13:00 +23°C° 0 mm 6 mps 741 mmHg 40%
    14:00 +21°C° 0.2 mm 5 mps 741 mmHg 47%
    15:00 +20°C° 0.2 mm 5 mps 741 mmHg 55%
    16:00 +18°C° 0.2 mm 4 mps 741 mmHg 62%
    17:00 +17°C° 0.5 mm 3 mps 741 mmHg 67%
    18:00 +16°C° 0.5 mm 3 mps 741 mmHg 73%
    19:00 +15°C° 0.5 mm 2 mps 741 mmHg 78%
    20:00 +14°C° 0.7 mm 2 mps 741 mmHg 80%
    21:00 +14°C° 0.7 mm 2 mps 741 mmHg 82%
    22:00 +13°C° 0.7 mm 1 mps 741 mmHg 83%
    23:00 +13°C° 0.7 mm 1 mps 741 mmHg 85%
    Show more